DW2150 Weather Reports


Display with metric or nautical units.
time (UTC)temp
F
wind
direction
speed
MPH
gust
MPH
rain 1hr
in
rain 24hr
in
rain mn
in
humidity
%
barometer
mb
20260510061258 75 109 0.0 1.0 0.00 0.00 0.00 92 1011.5
20260510060724 75 109 0.0 1.0 0.00 0.00 0.00 93 1011.5
20260510060221 75 109 1.0 1.0 0.00 0.00 0.00 92 1011.5
20260510055718 75 109 0.0 1.0 0.00 0.00 0.00 92 1011.5
20260510055214 76 109 0.0 1.0 0.00 0.00 0.00 92 1011.5
20260510054711 76 109 1.0 1.0 0.00 0.00 0.00 93 1011.5
20260510054208 76 109 1.0 1.0 0.00 0.00 0.00 93 1011.5
20260510053705 76 109 1.0 1.0 0.00 0.00 0.00 92 1011.5
20260510053201 76 109 1.0 1.0 0.00 0.00 0.00 92 1011.5
20260510052658 76 109 1.0 1.0 0.00 0.00 0.00 92 1011.5
20260510052123 76 109 1.0 1.0 0.00 0.00 0.00 92 1011.9
20260510051620 76 113 1.0 1.0 0.00 0.00 0.00 92 1011.9
20260510051118 76 115 1.0 2.0 0.00 0.00 0.00 92 1011.9
20260510050615 76 115 1.0 3.0 0.00 0.00 0.00 92 1011.9
20260510050112 77 325 1.0 3.0 0.00 0.00 0.00 92 1011.9
20260510045553 77 80 1.0 3.0 0.00 0.00 0.00 92 1011.9
20260510045050 77 82 0.0 7.0 0.00 0.00 0.00 92 1011.9
20260510044516 77 321 0.0 7.0 0.00 0.00 0.00 92 1011.9
20260510044013 77 18 1.0 7.0 0.00 0.00 0.00 92 1012.2
20260510043510 77 40 1.0 7.0 0.00 0.00 0.00 92 1012.2
20260510042936 77 17 0.0 8.0 0.00 0.00 0.00 92 1012.2
20260510042433 77 352 1.0 8.0 0.00 0.00 0.00 92 1012.2
20260510041930 77 69 3.0 8.0 0.00 0.00 0.00 92 1012.5
20260510041426 77 17 0.0 1.0 0.00 0.00 0.00 92 1012.5
20260510040923 77 66 0.0 3.0 0.00 0.00 0.00 92 1012.5
20260510040420 77 63 0.0 3.0 0.00 0.00 0.00 92 1012.5
20260510035859 77 66 0.0 3.0 0.00 0.00 0.00 92 1012.5
20260510035356 77 63 0.0 3.0 0.00 0.00 0.00 92 1012.5
20260510034853 77 5 0.0 0.0 0.00 0.00 0.00 92 1012.2
20260510034350 77 103 0.0 0.0 0.00 0.00 0.00 92 1011.9
20260510033847 78 132 0.0 0.0 0.00 0.00 0.00 91 1011.9
20260510033343 78 21 0.0 2.0 0.00 0.00 0.00 91 1011.9
20260510032840 78 21 0.0 9.0 0.00 0.00 0.00 91 1012.2
20260510032336 78 348 0.0 9.0 0.00 0.00 0.00 91 1012.2
20260510031833 78 63 0.0 9.0 0.00 0.00 0.00 91 1012.2
20260510031330 78 78 3.0 9.0 0.00 0.00 0.00 91 1012.2
20260510030827 78 75 2.0 8.0 0.00 0.00 0.00 91 1012.2
20260510030325 78 93 4.0 8.0 0.00 0.00 0.00 91 1012.2
20260510025821 78 51 2.0 8.0 0.00 0.00 0.00 91 1011.9
20260510025318 79 75 2.0 8.0 0.00 0.00 0.00 91 1011.9
20260510024815 79 59 0.0 7.0 0.00 0.00 0.00 91 1011.9
20260510024312 79 35 6.0 7.0 0.00 0.00 0.00 90 1011.9
20260510023809 79 33 2.0 5.0 0.00 0.00 0.00 90 1011.9
20260510023307 79 62 0.0 4.0 0.00 0.00 0.00 90 1011.5
20260510022803 79 135 0.0 4.0 0.00 0.00 0.00 90 1011.5
20260510022300 79 344 0.0 0.0 0.00 0.00 0.00 90 1011.5
20260510021757 79 115 0.0 3.0 0.00 0.00 0.00 90 1011.5
20260510021252 79 56 0.0 3.0 0.00 0.00 0.00 89 1011.2
20260510020749 79 51 0.0 4.0 0.00 0.00 0.00 89 1011.2
20260510020246 79 42 0.0 4.0 0.00 0.00 0.00 89 1010.8
20260510015723 79 5 0.0 4.0 0.00 0.00 0.00 88 1010.5
20260510015150 79 55 2.0 4.0 0.00 0.00 0.00 87 1010.2
20260510014646 79 30 0.0 1.0 0.00 0.00 0.00 86 1010.5
20260510014144 79 76 0.0 1.0 0.00 0.00 0.00 85 1010.2
20260510013640 79 329 0.0 1.0 0.00 0.00 0.00 85 1010.2
20260510013137 79 355 0.0 0.0 0.00 0.00 0.00 85 1010.2
20260510012634 80 360 0.0 0.0 0.00 0.00 0.00 85 1009.8
20260510012131 80 329 0.0 0.0 0.00 0.00 0.00 85 1009.5
20260510011628 80 329 0.0 0.0 0.00 0.00 0.00 84 1009.5
20260510011125 80 342 0.0 0.0 0.00 0.00 0.00 84 1009.5
20260510010622 80 180 0.0 0.0 0.00 0.00 0.00 84 1009.1
20260510010119 80 180 0.0 0.0 0.00 0.00 0.00 84 1008.8
20260510005617 80 180 0.0 0.0 0.00 0.00 0.00 83 1009.1
20260510005114 81 183 0.0 0.0 0.00 0.00 0.00 82 1009.1
20260510004610 81 183 0.0 0.0 0.00 0.00 0.00 81 1009.1
20260510004107 81 183 0.0 0.0 0.00 0.00 0.00 81 1009.1
20260510003514 82 275 0.0 0.0 0.00 0.00 0.00 83 1009.1
20260510003011 83 275 0.0 0.0 0.00 0.00 0.00 84 1009.1
20260510002507 83 275 0.0 0.0 0.00 0.00 0.00 83 1008.8
20260510002004 83 355 0.0 0.0 0.00 0.00 0.00 82 1008.8
20260510001501 83 360 0.0 0.0 0.00 0.00 0.00 81 1008.8
20260510000938 84 5 0.0 0.0 0.00 0.00 0.00 79 1008.8
20260510000435 84 5 0.0 0.0 0.00 0.00 0.00 78 1008.8
20260509235932 85 28 0.0 1.0 0.00 0.00 0.00 78 1008.5
20260509235428 86 19 0.0 1.0 0.00 0.00 0.00 76 1008.5
20260509234925 86 19 0.0 1.0 0.00 0.00 0.00 75 1008.5
20260509234422 86 19 0.0 2.0 0.00 0.00 0.00 76 1008.5
20260509233919 87 313 0.0 2.0 0.00 0.00 0.00 76 1008.5
20260509233416 87 313 0.0 2.0 0.00 0.00 0.00 76 1008.5
20260509232913 87 20 2.0 2.0 0.00 0.00 0.00 76 1008.5
20260509232410 87 11 0.0 2.0 0.00 0.00 0.00 77 1008.5
20260509231907 87 5 2.0 2.0 0.00 0.00 0.00 77 1008.5
20260509231403 87 11 0.0 0.0 0.00 0.00 0.00 76 1008.5
20260509230901 87 344 0.0 0.0 0.00 0.00 0.00 77 1008.5
20260509230325 87 346 0.0 0.0 0.00 0.00 0.00 78 1008.5
20260509225823 87 339 0.0 0.0 0.00 0.00 0.00 78 1008.5
20260509225319 88 241 0.0 0.0 0.00 0.00 0.00 78 1008.5
20260509224816 88 321 0.0 0.0 0.00 0.00 0.00 78 1008.1
20260509224313 88 97 0.0 0.0 0.00 0.00 0.00 78 1008.5
20260509223810 88 124 0.0 0.0 0.00 0.00 0.00 79 1008.5
20260509223306 88 49 0.0 0.0 0.00 0.00 0.00 79 1008.1
20260509222803 88 20 0.0 0.0 0.00 0.00 0.00 79 1008.1
20260509222229 87 20 0.0 0.0 0.00 0.00 0.00 80 1008.1
20260509221655 87 53 0.0 0.0 0.00 0.00 0.00 80 1008.1
20260509221120 87 360 0.0 0.0 0.00 0.00 0.00 81 1008.1
20260509220617 87 360 0.0 1.0 0.00 0.00 0.00 81 1008.1
20260509220114 87 42 0.0 1.0 0.00 0.00 0.00 81 1008.1
20260509215550 88 42 0.0 1.0 0.00 0.00 0.00 80 1008.1
20260509215047 88 42 0.0 1.0 0.00 0.00 0.00 79 1008.1
20260509214513 88 70 0.0 2.0 0.00 0.00 0.00 80 1008.1
20260509214010 88 70 0.0 2.0 0.00 0.00 0.00 80 1008.1
20260509213507 89 67 0.0 4.0 0.00 0.00 0.00 77 1008.1
20260509213005 89 24 2.0 5.0 0.00 0.00 0.00 77 1008.1
20260509212501 90 56 0.0 5.0 0.00 0.00 0.00 76 1008.1
20260509211958 90 82 0.0 6.0 0.00 0.00 0.00 77 1008.1
20260509211455 91 71 5.0 6.0 0.00 0.00 0.00 75 1008.1
20260509210935 91 53 2.0 3.0 0.00 0.00 0.00 75 1008.1
20260509210432 90 109 0.0 0.0 0.00 0.00 0.00 75 1008.1
20260509205928 90 5 0.0 0.0 0.00 0.00 0.00 73 1008.1
20260509205424 90 23 0.0 0.0 0.00 0.00 0.00 76 1008.1
20260509204902 90 77 0.0 0.0 0.00 0.00 0.00 76 1008.1
20260509204359 90 40 0.0 0.0 0.00 0.00 0.00 76 1008.1
20260509203856 90 67 0.0 0.0 0.00 0.00 0.00 77 1008.1
20260509203353 90 73 0.0 4.0 0.00 0.00 0.00 78 1008.5
20260509202850 90 74 0.0 4.0 0.00 0.00 0.00 77 1008.5
20260509202315 90 339 0.0 4.0 0.00 0.00 0.00 77 1008.5
20260509201813 90 17 0.0 1.0 0.00 0.00 0.00 76 1008.5
20260509201238 90 71 0.0 1.0 0.00 0.00 0.00 78 1008.5
20260509200735 90 291 0.0 1.0 0.00 0.00 0.00 75 1008.8
20260509200213 90 327 0.0 1.0 0.00 0.00 0.00 74 1008.8
20260509195650 90 31 0.0 0.0 0.00 0.00 0.00 74 1008.8
20260509195116 90 22 0.0 0.0 0.00 0.00 0.00 72 1008.8
20260509194613 90 292 0.0 0.0 0.00 0.00 0.00 69 1008.8
20260509194110 90 292 0.0 0.0 0.00 0.00 0.00 71 1008.8
20260509193601 90 292 0.0 0.0 0.00 0.00 0.00 71 1008.8
20260509193058 90 333 0.0 0.0 0.00 0.00 0.00 70 1008.8
20260509192555 90 336 0.0 0.0 0.00 0.00 0.00 71 1008.8
20260509192052 90 70 0.0 0.0 0.00 0.00 0.00 71 1009.1
20260509191549 89 273 0.0 0.0 0.00 0.00 0.00 72 1009.1
20260509191046 89 273 0.0 0.0 0.00 0.00 0.00 71 1009.1
20260509190543 89 245 0.0 0.0 0.00 0.00 0.00 72 1009.1
20260509190040 89 261 0.0 0.0 0.00 0.00 0.00 72 1009.1
20260509185536 89 259 0.0 0.0 0.00 0.00 0.00 73 1009.1
20260509185033 88 237 0.0 0.0 0.00 0.00 0.00 74 1009.1
20260509184530 88 257 0.0 5.0 0.00 0.00 0.00 76 1009.1
20260509183955 87 306 0.0 5.0 0.00 0.00 0.00 74 1009.1
20260509183452 87 355 0.0 5.0 0.00 0.00 0.00 76 1009.5
20260509182918 87 242 0.0 5.0 0.00 0.00 0.00 78 1009.5
20260509182414 87 252 0.0 0.0 0.00 0.00 0.00 78 1009.8
20260509181911 86 279 0.0 0.0 0.00 0.00 0.00 79 1009.8
20260509181246 86 256 0.0 1.0 0.00 0.00 0.00 81 1009.8
20260509180743 85 288 0.0 1.0 0.00 0.00 0.00 83 1010.2
20260509180221 84 240 0.0 1.0 0.00 0.00 0.00 84 1010.2
20260509175718 84 249 1.0 1.0 0.00 0.00 0.00 85 1010.5
20260509175216 83 238 1.0 1.0 0.00 0.00 0.00 85 1010.5
20260509174713 82 266 0.0 0.0 0.00 0.00 0.00 88 1010.5
20260509174210 82 257 0.0 0.0 0.00 0.00 0.00 86 1010.5
20260509173707 83 257 0.0 1.0 0.00 0.00 0.00 86 1010.5
20260509173204 83 256 0.0 2.0 0.00 0.00 0.00 87 1010.8
20260509172701 83 251 0.0 2.0 0.00 0.00 0.00 87 1010.8
20260509172158 82 263 0.0 2.0 0.00 0.00 0.00 87 1010.8
20260509171655 82 252 1.0 2.0 0.00 0.00 0.00 88 1010.8
20260509171152 82 259 0.0 0.0 0.00 0.00 0.00 89 1010.8
20260509170649 82 260 0.0 0.0 0.00 0.00 0.00 89 1010.8
20260509170146 82 260 0.0 0.0 0.00 0.00 0.00 89 1010.8
20260509165548 82 260 0.0 0.0 0.00 0.00 0.00 90 1010.8
20260509165045 82 259 0.0 0.0 0.00 0.00 0.00 90 1010.8
20260509164542 82 260 0.0 0.0 0.00 0.00 0.00 90 1010.8
20260509164039 82 259 0.0 0.0 0.00 0.00 0.00 89 1010.8
20260509163536 82 259 0.0 0.0 0.00 0.00 0.00 88 1010.8
20260509163033 82 260 0.0 0.0 0.00 0.00 0.00 89 1010.8
20260509162530 81 259 0.0 0.0 0.00 0.00 0.00 89 1010.8
20260509161953 82 260 0.0 0.0 0.00 0.00 0.00 88 1010.8
20260509161417 81 259 0.0 0.0 0.00 0.00 0.00 90 1010.8
20260509160909 81 260 0.0 0.0 0.00 0.00 0.00 90 1010.5
20260509160404 81 260 0.0 0.0 0.00 0.00 0.00 92 1010.5
20260509155901 80 260 0.0 0.0 0.00 0.00 0.00 92 1010.8
20260509155358 80 259 0.0 0.0 0.00 0.00 0.00 93 1010.8
20260509154753 79 259 0.0 0.0 0.00 0.00 0.00 93 1010.5
20260509154218 79 255 0.0 0.0 0.00 0.00 0.00 93 1010.2
20260509153715 78 254 0.0 0.0 0.00 0.00 0.00 94 1010.2
20260509153211 78 254 0.0 0.0 0.00 0.00 0.00 94 1010.2
20260509152637 78 254 0.0 0.0 0.00 0.00 0.00 94 1010.5
20260509152134 78 254 0.0 0.0 0.00 0.00 0.00 94 1010.5
20260509151631 77 254 0.0 0.0 0.00 0.00 0.00 94 1010.5
20260509151127 77 254 0.0 0.0 0.00 0.00 0.00 94 1010.2
20260509150623 77 254 0.0 0.0 0.00 0.00 0.00 94 1010.2
20260509150120 77 254 0.0 0.0 0.00 0.00 0.00 94 1010.5
20260509145556 77 254 0.0 0.0 0.00 0.00 0.00 94 1010.5
20260509145053 77 254 0.0 0.0 0.00 0.00 0.00 94 1010.5
20260509144550 77 254 0.0 0.0 0.00 0.00 0.00 94 1010.5
20260509144016 77 254 0.0 0.0 0.00 0.00 0.00 94 1010.8
20260509143512 78 254 0.0 0.0 0.00 0.00 0.00 95 1010.8
20260509143010 78 254 0.0 0.0 0.00 0.00 0.00 95 1010.8
20260509142451 78 254 0.0 0.0 0.00 0.00 0.00 95 1010.8
20260509141916 77 254 0.0 0.0 0.00 0.00 0.00 95 1010.8
20260509141412 77 254 0.0 0.0 0.00 0.00 0.00 96 1010.8
20260509140909 77 254 0.0 0.0 0.00 0.00 0.00 96 1010.8
20260509140405 77 254 0.0 0.0 0.00 0.00 0.00 96 1010.8
20260509135830 77 247 0.0 0.0 0.00 0.00 0.00 96 1010.8
20260509135255 77 246 0.0 0.0 0.00 0.00 0.00 96 1010.5
20260509134751 76 252 0.0 0.0 0.00 0.00 0.00 96 1010.2
20260509134248 76 252 0.0 0.0 0.00 0.00 0.00 96 1010.2
20260509133744 76 252 0.0 1.0 0.00 0.00 0.00 96 1010.5
20260509133241 76 252 0.0 1.0 0.00 0.00 0.00 96 1010.8
20260509132738 76 256 0.0 1.0 0.00 0.00 0.00 96 1010.8
20260509132234 76 277 1.0 1.0 0.00 0.00 0.00 96 1010.8
20260509131731 76 257 0.0 0.0 0.00 0.00 0.00 96 1010.8
20260509131137 76 246 0.0 0.0 0.00 0.00 0.00 96 1010.8
20260509130547 76 247 0.0 0.0 0.00 0.00 0.00 96 1010.5
20260509130044 75 40 0.0 0.0 0.00 0.00 0.00 96 1010.5
20260509125510 75 40 0.0 0.0 0.00 0.00 0.00 96 1010.5
20260509124936 75 40 0.0 0.0 0.00 0.00 0.00 96 1010.5
20260509124432 75 40 0.0 0.0 0.00 0.00 0.00 96 1010.5
20260509123858 75 40 0.0 0.0 0.00 0.00 0.00 96 1010.8
20260509123354 74 40 0.0 0.0 0.00 0.00 0.00 96 1010.5
20260509122820 74 40 0.0 0.0 0.00 0.00 0.00 96 1010.5
20260509122315 74 40 0.0 0.0 0.00 0.00 0.00 96 1010.5
20260509121812 74 40 0.0 0.0 0.00 0.00 0.00 96 1010.5
20260509121309 74 40 0.0 0.0 0.00 0.00 0.00 95 1010.5
20260509120805 74 40 0.0 0.0 0.00 0.00 0.00 96 1010.5
20260509120159 74 40 0.0 0.0 0.00 0.00 0.00 96 1010.5
20260509115637 74 40 0.0 0.0 0.00 0.00 0.00 96 1010.5
20260509115134 74 40 0.0 0.0 0.00 0.00 0.00 96 1010.5
20260509114631 74 40 0.0 0.0 0.00 0.00 0.00 96 1010.5
20260509114128 74 40 0.0 0.0 0.00 0.00 0.00 96 1010.5
20260509113624 75 40 0.0 0.0 0.00 0.00 0.00 96 1010.5
20260509113121 74 40 0.0 0.0 0.00 0.00 0.00 96 1010.5
20260509112618 74 40 0.0 0.0 0.00 0.00 0.00 96 1010.5
20260509112004 75 40 0.0 0.0 0.00 0.00 0.00 96 1010.5
20260509111501 75 40 0.0 0.0 0.00 0.00 0.00 96 1010.5
20260509110957 75 40 0.0 0.0 0.00 0.00 0.00 96 1010.2
20260509110423 75 40 0.0 0.0 0.00 0.00 0.00 96 1010.2
20260509105919 75 40 0.0 0.0 0.00 0.00 0.00 96 1010.2
20260509105416 75 40 0.0 0.0 0.00 0.00 0.00 96 1009.8
20260509104914 75 40 0.0 0.0 0.00 0.00 0.00 96 1009.8
20260509104410 74 40 0.0 0.0 0.00 0.00 0.00 96 1009.8
20260509103907 74 40 0.0 0.0 0.00 0.00 0.00 96 1009.8
20260509103332 74 40 0.0 0.0 0.00 0.00 0.00 96 1009.8
20260509102828 74 40 0.0 0.0 0.00 0.00 0.00 96 1010.2
20260509102325 74 40 0.0 0.0 0.00 0.00 0.00 96 1010.2
20260509101822 74 40 0.0 0.0 0.00 0.00 0.00 96 1009.8
20260509101319 74 40 0.0 0.0 0.00 0.00 0.00 95 1009.8
20260509100816 74 40 0.0 0.0 0.00 0.00 0.00 95 1010.2
20260509100312 74 40 0.0 0.0 0.00 0.00 0.00 95 1010.2
20260509095809 74 40 0.0 0.0 0.00 0.00 0.00 95 1009.8
20260509095235 74 40 0.0 0.0 0.00 0.00 0.00 95 1009.8
20260509094732 74 40 0.0 0.0 0.00 0.00 0.00 95 1009.8
20260509094228 74 40 0.0 0.0 0.00 0.00 0.00 95 1009.8
20260509093654 74 40 0.0 0.0 0.00 0.00 0.00 95 1009.8
20260509093151 74 40 0.0 0.0 0.00 0.00 0.00 95 1009.8
20260509092648 74 40 0.0 0.0 0.00 0.00 0.00 95 1009.5
20260509092124 74 40 0.0 0.0 0.00 0.00 0.00 95 1009.5
20260509091620 74 40 0.0 0.0 0.00 0.00 0.00 96 1009.5
20260509091117 74 40 0.0 0.0 0.00 0.00 0.00 96 1009.5
20260509090512 74 40 0.0 0.0 0.00 0.00 0.00 96 1009.5
20260509085947 73 40 0.0 0.0 0.00 0.00 0.00 95 1009.5
20260509085443 73 40 0.0 0.0 0.00 0.00 0.00 95 1009.1
20260509084939 73 40 0.0 0.0 0.00 0.00 0.00 95 1009.5
20260509084437 73 40 0.0 0.0 0.00 0.00 0.00 95 1009.5
20260509083933 73 40 0.0 0.0 0.00 0.00 0.00 95 1009.5
20260509083430 73 40 0.0 0.0 0.00 0.00 0.00 95 1009.5
20260509082927 73 40 0.0 0.0 0.00 0.00 0.00 95 1009.5
20260509082321 73 40 0.0 0.0 0.00 0.00 0.00 95 1009.5
20260509081818 73 40 0.0 0.0 0.00 0.00 0.00 95 1009.8
20260509081315 73 40 0.0 0.0 0.00 0.00 0.00 95 1009.8
20260509080813 73 40 0.0 0.0 0.00 0.00 0.00 95 1009.8
20260509080207 73 40 0.0 0.0 0.00 0.00 0.00 95 1009.8
20260509075645 74 40 0.0 0.0 0.00 0.00 0.00 95 1009.8
20260509075141 74 40 0.0 0.0 0.00 0.00 0.00 95 1010.2
20260509074638 73 40 0.0 0.0 0.00 0.00 0.00 95 1010.2
20260509074135 73 40 0.0 0.0 0.00 0.00 0.00 95 1010.2
20260509073632 73 40 0.0 0.0 0.00 0.00 0.00 95 1010.2
20260509073129 74 40 0.0 0.0 0.00 0.00 0.00 95 1010.2
20260509072627 74 40 0.0 0.0 0.00 0.00 0.00 95 1010.2
20260509072123 74 40 0.0 0.0 0.00 0.00 0.00 95 1010.2
20260509071621 74 40 0.0 0.0 0.00 0.00 0.00 95 1010.2
20260509071028 74 40 0.0 0.0 0.00 0.00 0.00 95 1010.2
20260509070525 74 40 0.0 0.0 0.00 0.00 0.00 95 1010.2
20260509070003 74 40 0.0 0.0 0.00 0.00 0.00 95 1010.2
20260509065429 74 40 0.0 0.0 0.00 0.00 0.00 95 1010.2
20260509064926 74 40 0.0 0.0 0.00 0.00 0.00 95 1010.2
20260509064423 74 40 0.0 0.0 0.00 0.00 0.00 95 1009.8
20260509063849 74 40 0.0 0.0 0.00 0.00 0.00 95 1010.2
20260509063346 74 40 0.0 0.0 0.00 0.00 0.00 95 1010.2
20260509062843 74 40 0.0 0.0 0.00 0.00 0.00 95 1010.2
20260509062338 74 40 0.0 0.0 0.00 0.00 0.00 95 1010.5
20260509061835 74 40 0.0 0.0 0.00 0.00 0.00 95 1010.2